Weather History for Cork, Ireland

Change the Weather History Date:

Thursday, January 23, 2014

  Actual Average Record
Temperature  
Mean Temperature 41 °F -  
Max Temperature 45 °F 46 °F 51 °F (2008)
Min Temperature 37 °F 37 °F 14 °F (2013)
Degree Days  
Heating Degree Days 24    
Moisture  
Dew Point 40 °F    
Average Humidity 84    
Maximum Humidity 100    
Minimum Humidity 63    
Precipitation  
Precipitation 0.08 in 0.16 in - ()
Sea Level Pressure  
Sea Level Pressure 29.97 in    
Wind  
Wind Speed 12 mph ()    
Max Wind Speed 27 mph    
Max Gust Speed 38 mph    
Visibility 7.1 miles    
Events Fog , Rain    
Averages and records for this station are not official NWS values.
T = Trace of Precipitation, MM = Missing Value Source: Averaged Metar Reports

Daily Weather History Graph

Daily Weather History Graph

Search for Another Location

Airport:

Trip Planner

Search our weather history database for the weather conditions in past years. The results will help you decide how hot, cold, wet, or windy it might be!

Date:

Astronomy

Jan. 23, 2014 Rise Set
Actual Time 8:26 AM GMT 5:05 PM GMT
Civil Twilight 7:48 AM GMT 5:43 PM GMT
Nautical Twilight 7:06 AM GMT 6:25 PM GMT
Astronomical Twilight 6:27 AM GMT 7:05 PM GMT
Moon 12:15 AM GMT (1/23) 10:58 AM GMT (1/23)
Length of Visible Light 9h 55m
Length of Day
8h 39m
Waning Gibbous, 57% of the Moon is Illuminated
Jan 23
Waning Gibbous
Jan 24
Last Quarter
Jan 30
New
Feb 6
First Quarter
Feb 14
Full

Hourly Weather History & Observations

Time (GMT) Temp. Windchill Dew Point Humidity Pressure Visibility Wind Dir Wind Speed Gust Speed Precip Events Conditions
12:00 AM 43 °F - 42 °F 95% 29.90 in 1 mi SW 8.9 mph - - Rain Light Rain
12:00 AM 42.8 °F 38.0 °F 42.8 °F 100% 29.89 in 1.1 mi SW 8.1 mph - N/A Rain Light Rain
12:30 AM 44.6 °F 39.2 °F 42.8 °F 93% 29.89 in 1.9 mi SW 10.4 mph - N/A Rain Light Rain
1:00 AM 44 °F - 44 °F 98% 29.89 in 2 mi WSW 13.4 mph - - Rain Light Rain
1:00 AM 44.6 °F 38.4 °F 44.6 °F 100% 29.86 in 2.5 mi WSW 12.7 mph - N/A   Mostly Cloudy
1:30 AM 44.6 °F 38.8 °F 42.8 °F 93% 29.89 in 6.2 mi West 11.5 mph - N/A   Mostly Cloudy
2:00 AM 44 °F - 43 °F 96% 29.91 in 12 mi West 13.4 mph - -   Mostly Cloudy
2:00 AM 44.6 °F 38.4 °F 42.8 °F 93% 29.89 in 6.2 mi West 12.7 mph - N/A   Mostly Cloudy
2:30 AM 46.4 °F 39.5 °F 41.0 °F 81% 29.89 in 6.2 mi West 17.3 mph - N/A   Mostly Cloudy
3:00 AM 45 °F - 39 °F 73% 29.91 in 12 mi West 17.9 mph - -   Partly Cloudy
3:00 AM 44.6 °F 37.2 °F 39.2 °F 81% 29.89 in 6.2 mi West 17.3 mph 28.8 mph N/A   Mostly Cloudy
3:30 AM 44.6 °F 36.9 °F 39.2 °F 81% 29.89 in 6.2 mi WNW 18.4 mph - N/A   Mostly Cloudy
4:00 AM 45 °F - 39 °F 73% 29.93 in 12 mi WNW 11.2 mph - -   Mostly Cloudy
4:00 AM 44.6 °F 38.8 °F 39.2 °F 81% 29.92 in 6.2 mi WNW 11.5 mph - N/A   Mostly Cloudy
4:30 AM 44.6 °F 38.1 °F 39.2 °F 81% 29.92 in 6.2 mi West 13.8 mph - N/A   Mostly Cloudy
5:00 AM 44 °F - 40 °F 81% 29.93 in 12 mi WNW 17.9 mph - - Rain Light Rain Showers
5:00 AM 44.6 °F 36.9 °F 41.0 °F 87% 29.92 in 6.2 mi WNW 18.4 mph - N/A Rain Light Rain Showers
5:30 AM 42.8 °F 33.5 °F 39.2 °F 87% 29.92 in 6.2 mi WNW 23.0 mph - N/A   Scattered Clouds
6:00 AM 44 °F - 38 °F 71% 29.94 in 12 mi WNW 20.1 mph - - Rain Light Rain Showers
6:00 AM 44.6 °F 36.4 °F 37.4 °F 76% 29.92 in 6.2 mi WNW 20.7 mph - N/A   Scattered Clouds
6:30 AM 44.6 °F 35.9 °F 37.4 °F 76% 29.92 in 6.2 mi WNW 23.0 mph - N/A   Mostly Cloudy
7:00 AM 43 °F - 37 °F 72% 29.97 in 16 mi WNW 26.8 mph - - Rain Light Rain Showers
7:00 AM 42.8 °F 32.9 °F 37.4 °F 81% 29.95 in 6.2 mi WNW 26.5 mph 38.0 mph N/A   Mostly Cloudy
7:30 AM 42.8 °F 34.8 °F 37.4 °F 81% 29.95 in 6.2 mi WNW 17.3 mph - N/A   Scattered Clouds
8:00 AM 42 °F - 38 °F 82% 30.01 in 12 mi WNW 15.7 mph - - Rain Light Rain Showers
8:00 AM 42.8 °F 35.4 °F 39.2 °F 87% 29.98 in 6.2 mi WNW 15.0 mph - N/A Rain Light Rain Showers
8:30 AM 42.8 °F 34.3 °F 37.4 °F 81% 29.98 in 6.2 mi West 19.6 mph - N/A   Mostly Cloudy
9:00 AM 42 °F - 37 °F 78% 30.02 in 16 mi WNW 15.7 mph - - Rain Light Rain Showers
9:00 AM 42.8 °F 35.1 °F 37.4 °F 81% 29.98 in 6.2 mi WNW 16.1 mph - N/A   Mostly Cloudy
9:30 AM 42.8 °F 35.1 °F 37.4 °F 81% 30.01 in 6.2 mi WNW 16.1 mph - N/A   Mostly Cloudy
10:00 AM 43 °F - 37 °F 74% 30.02 in 11 mi West 17.9 mph - -   Mostly Cloudy
10:00 AM 42.8 °F 34.8 °F 37.4 °F 81% 29.98 in 6.2 mi West 17.3 mph - N/A   Mostly Cloudy
10:30 AM 42.8 °F 35.1 °F 37.4 °F 81% 30.01 in 6.2 mi West 16.1 mph - N/A   Mostly Cloudy
11:00 AM 43 °F - 38 °F 77% 30.04 in 16 mi West 13.4 mph - -   Partly Cloudy
11:00 AM 42.8 °F 35.8 °F 39.2 °F 87% 30.01 in 6.2 mi West 13.8 mph - N/A   Mostly Cloudy
11:30 AM 42.8 °F 35.1 °F 39.2 °F 87% 30.01 in 6.2 mi West 16.1 mph - N/A   Mostly Cloudy
12:00 PM 44 °F - 38 °F 74% 30.04 in 19 mi West 15.7 mph - -   Partly Cloudy
12:00 PM 44.6 °F 37.8 °F 39.2 °F 81% 30.01 in 6.2 mi West 15.0 mph - N/A   Mostly Cloudy
12:30 PM 44.6 °F 36.9 °F 37.4 °F 76% 30.01 in 6.2 mi West 18.4 mph - N/A   Mostly Cloudy
1:00 PM 44 °F - 38 °F 72% 30.04 in 16 mi West 17.9 mph - -   Mostly Cloudy
1:00 PM 44.6 °F 37.2 °F 37.4 °F 76% 30.01 in 6.2 mi West 17.3 mph - N/A   Mostly Cloudy
1:30 PM 44.6 °F 37.2 °F 37.4 °F 76% 30.01 in 6.2 mi West 17.3 mph - N/A   Mostly Cloudy
2:00 PM 46 °F - 38 °F 63% 30.02 in 14 mi WNW 13.4 mph - -   Mostly Cloudy
2:00 PM 46.4 °F 40.4 °F 37.4 °F 71% 30.01 in 6.2 mi WNW 13.8 mph - N/A   Mostly Cloudy
2:30 PM 46.4 °F 40.4 °F 37.4 °F 71% 30.01 in 6.2 mi West 13.8 mph - N/A   Mostly Cloudy
3:00 PM 45 °F - 38 °F 69% 30.04 in 14 mi West 13.4 mph - - Rain Light Rain Showers
3:00 PM 44.6 °F 38.1 °F 37.4 °F 76% 30.01 in 6.2 mi West 13.8 mph - N/A   Mostly Cloudy
3:30 PM 44.6 °F 40.7 °F 39.2 °F 81% 30.01 in 6.2 mi WSW 6.9 mph - N/A Rain Light Rain Showers
4:00 PM 44 °F - 40 °F 81% 30.04 in 12 mi West 6.7 mph - - Rain Light Rain Showers
4:00 PM 44.6 °F 40.7 °F 41.0 °F 87% 30.01 in 6.2 mi West 6.9 mph - N/A Rain Light Rain Showers
4:30 PM 44.6 °F 42.2 °F 39.2 °F 81% 30.04 in 6.2 mi WSW 4.6 mph - N/A   Mostly Cloudy
5:00 PM 42 °F - 39 °F 84% 30.05 in 11 mi WSW 6.7 mph - - Rain Light Rain Showers
5:00 PM 42.8 °F 38.6 °F 39.2 °F 87% 30.04 in 6.2 mi WSW 6.9 mph - N/A   Mostly Cloudy
5:30 PM 42.8 °F 39.3 °F 39.2 °F 87% 30.04 in 6.2 mi WSW 5.8 mph - N/A   Mostly Cloudy
6:00 PM 42 °F - 39 °F 86% 30.05 in 11 mi WSW 11.2 mph - - Rain Light Rain Showers
6:00 PM 42.8 °F 38.0 °F 39.2 °F 87% 30.04 in 6.2 mi WSW 8.1 mph - N/A Rain Light Rain Showers
6:30 PM 42.8 °F 38.0 °F 39.2 °F 87% 30.04 in 6.2 mi WSW 8.1 mph - N/A   Mostly Cloudy
7:00 PM 43 °F - 40 °F 85% 30.05 in 11 mi WSW 6.7 mph - - Rain Light Drizzle
7:00 PM 42.8 °F 38.6 °F 41.0 °F 93% 30.01 in 6.2 mi WSW 6.9 mph - N/A   Mostly Cloudy
7:30 PM 42.8 °F 38.6 °F 41.0 °F 93% 30.01 in 6.2 mi SW 6.9 mph - N/A   Mostly Cloudy
8:00 PM 42 °F - 40 °F 89% 30.03 in 12 mi SSW 6.7 mph - -   Mostly Cloudy
8:00 PM 42.8 °F 39.3 °F 39.2 °F 87% 30.01 in 6.2 mi SSW 5.8 mph - N/A   Mostly Cloudy
8:30 PM 42.8 °F 38.6 °F 41.0 °F 93% 29.98 in 6.2 mi SSW 6.9 mph - N/A   Mostly Cloudy
9:00 PM 42 °F - 41 °F 94% 30.01 in 2 mi South 6.7 mph - - Rain Light Rain
9:00 PM 42.8 °F 39.3 °F 41.0 °F 93% 29.98 in 2.5 mi South 5.8 mph - N/A Rain Light Rain
9:30 PM 42.8 °F 38.6 °F 41.0 °F 93% 29.98 in 1.0 mi South 6.9 mph - N/A Rain Light Rain
10:00 PM 43 °F - 42 °F 95% 29.97 in 1 mi South 8.9 mph - - Rain Light Rain
10:00 PM 42.8 °F 38.0 °F 42.8 °F 100% 29.95 in 0.6 mi South 8.1 mph - N/A Fog , Rain Light Rain
10:30 PM 42.8 °F 38.0 °F 42.8 °F 100% 29.92 in 0.4 mi South 8.1 mph - N/A Fog , Rain Light Rain
11:00 PM 44 °F - 44 °F 98% 29.94 in 0 mi South 8.9 mph - - Rain Light Rain
11:00 PM 44.6 °F 39.7 °F 44.6 °F 100% 29.92 in 0.4 mi South 9.2 mph - N/A Fog , Rain Light Rain
11:30 PM 44.6 °F 40.7 °F 44.6 °F 100% 29.89 in 0.4 mi SSW 6.9 mph - N/A Fog , Rain Light Rain